Regional Weather Roundup
Issued by NWS Austin/San Antonio, TX

Home | Current Version | Previous Version | Text Only | Print | Product List | Glossary On
Versions: 1 2 3 4 5 6 7 8 9 10 11 12 13 14 15 16 17 18 19 20 21 22 23 24 25 26 27 28 29 30 31 32 33 34 35 36 37 38 39 40 41 42 43 44 45 46 47 48 49 50
000
ASUS44 KEWX 161710
RWREWX
SOUTH TEXAS REGIONAL WEATHER ROUNDUP
NATIONAL WEATHER SERVICE AUSTIN/SAN ANTONIO TX
1100 AM CST SAT DEC 16 2017

NOTE: "FAIR" INDICATED FEW OR NO CLOUDS BELOW 12,000 FEET WITH NO
SIGNIFICANT WEATHER AND/OR OBSTRUCTIONS TO VISIBILITY.

* - THESE STATIONS ARE NOT NWS OR FAA STATIONS...AND ARE NOT SUBJECT
    TO NWS AND FAA QUALITY CONTROL.

TXZ171-172-183>190-161800-
TEXAS HILL COUNTRY AND EDWARDS PLATEAU

CITY           SKY/WX    TMP DP  RH WIND       PRES   REMARKS
JUNCTION       CLOUDY    44  36  73 CALM      30.10R
*LLANO         CLOUDY    46  36  66 CALM      30.17R
BURNET         CLOUDY    49  36  61 S6        30.14F WCI  46
*HORSESHOE BAY CLOUDY    51  37  56 S5        30.13S
*KERRVILLE     CLOUDY    48  38  69 S3        30.13R
*FREDERICKSBRG CLOUDY    48  35  62 S5        30.12S WCI  46
*ROCKSPRINGS   NOT AVBL
*BOERNE STAGE  CLOUDY    46  34  61 S7        30.15S WCI  43
*CASTROVILLE   RAIN      49  41  72 CALM      30.17S
HONDO          CLOUDY    51  41  68 SW3       30.16R
*UVALDE        CLOUDY    48  40  74 S10       30.17S WCI  43
DEL RIO        CLOUDY    47  41  80 SE12      30.13R WCI  42
LAUGHLIN AFB   CLOUDY    47  40  75 S9        30.14R WCI  43
CARRIZO SPRGS  RAIN      46  43  87 SE7       30.15F WCI  43
*EAGLE PASS    CLOUDY    48  37  66 S8        30.17R WCI  45
$$

TXZ173-191>194-202-209-217>225-228-161800-
CENTRAL AND SOUTH CENTRAL TEXAS

CITY           SKY/WX    TMP DP  RH WIND       PRES   REMARKS
GEORGETOWN     CLOUDY    48  40  73 SE3       30.16F
AUSTIN/BERGSTM CLOUDY    53  40  61 SE5       30.15F
AUSTIN/MABRY   CLOUDY    50  39  66 SE3       30.16F
*AUSTIN/EXEC   CLOUDY    48  39  71 SE6       30.17R HAZE    WCI  46
*LAGO VISTA    CLOUDY    50  39  65 CALM      30.14S
SAN MARCOS     CLOUDY    52  42  69 SE6       30.16F
NEW BRAUNFELS  CLOUDY    51  44  77 SE5       30.14F
RANDOLPH AFB   CLOUDY    50  44  81 CALM      30.14S
PT SAN ANTONIO CLOUDY    51  42  71 CALM      30.13S
SAN ANTONIO    LGT RAIN  50  43  77 E6        30.15S WCI  48
STINSON FIELD  CLOUDY    52  42  69 CALM      30.14R
*LA GRANGE     CLOUDY    53  38  57 SE5       30.16F
*GIDDINGS      CLOUDY    50  40  67 SE6       30.18S HAZE    WCI  48
*GONZALES      CLOUDY    52  39  61 SE7       30.16F
$$

TXZ163>164-176>182-195>201-210>213-226-227-235-161800-
SOUTHEAST TEXAS

CITY           SKY/WX    TMP DP  RH WIND       PRES   REMARKS
COLLEGE STN    CLOUDY    50  38  63 SE7       30.19F WCI  47
*BRYAN         CLOUDY    49  37  64 SE8       30.20F WCI  45
*CALDWELL      CLOUDY    50  41  72 SE7       30.18F WCI  47
*CROCKETT        N/A     46  39  76 CALM      30.24F
*BRENHAM       CLOUDY    52  39  60 SE6       30.20S
HUNTSVILLE     CLOUDY    50  36  58 SE3       30.20F
CONROE         CLOUDY    50  39  66 SE6       30.21S WCI  48
HOUSTON BUSH   CLOUDY    54  38  54 E10       30.21F
HOUSTON HOBBY  CLOUDY    55  35  47 E13       30.20F
*HOUSTON SW AP CLOUDY    55  37  50 E10G18    30.20F
PEARLAND       CLOUDY    56  40  55 E10       30.21F
HOUSTON HOOKS  CLOUDY    52  39  61 E6        30.20F
ELLINGTON FLD  PTSUNNY   54  41  62 E14       30.22F
SUGAR LAND     CLOUDY    55  36  48 E12       30.20F
*HOUSTON EXEC  NOT AVBL
*CLEVELAND MUN CLOUDY    51  37  58 CALM      30.23S
*WHARTON       CLOUDY    54  35  49 E10       30.18F
*COLUMBUS      PTSUNNY   51  35  53 W7        30.19F
*EAGLE LAKE    CLOUDY    52  41  66 E7        30.17F
$$

TXZ214>216-236>238-161800-
THE UPPER TEXAS COAST

CITY           SKY/WX    TMP DP  RH WIND       PRES   REMARKS
*ORANGE        CLOUDY    53  37  54 E12       30.25F
PORT ARTHUR    CLOUDY    55  35  47 E13       30.22F
GALVESTON      CLOUDY    59  43  55 E15       30.21F
ANGLETON       CLOUDY    58  42  55 E14       30.19F
*BAY CITY      PTSUNNY   58  44  59 E13G18    30.17F
PALACIOS       MOSUNNY   60  45  57 E17G24    30.15F
$$

TXZ229>234-239>247-161800-
TEXAS COASTAL BEND AND RIO GRANDE PLAINS

CITY           SKY/WX    TMP DP  RH WIND       PRES   REMARKS
VICTORIA       CLOUDY    54  38  54 E12       30.15F
*BEEVILLE      CLOUDY    53  34  49 E10       30.14S
ROCKPORT       CLOUDY    56  46  69 NE13      30.13F
*PORT ARANSAS  NOT AVBL
*PORT LAVACA   CLOUDY    55  44  66 NE12      30.15F
*INGLESIDE     CLOUDY    57  45  65 NE10      30.12F
CORPUS CHRISTI CLOUDY    53  43  68 NE15      30.12F
CORPUS NAS     CLOUDY    58  50  75 NE14      30.11F
*ROBSTOWN      CLOUDY    52  42  68 NE9       30.12F
ALICE          CLOUDY    52  39  61 NE8       30.13S
KINGSVILLE NAS CLOUDY    53  47  79 N9        30.12F
COTULLA        CLOUDY    49  45  86 W3        30.19R
*FAITH RANCH   MOSUNNY   45  45 100 SE7G16    30.15F FOG     WCI  41
LAREDO         RAIN      47  44  90 MISG      30.19S
$$

TXZ248>255-161800-
DEEP SOUTH TEXAS

CITY           SKY/WX    TMP DP  RH WIND       PRES   REMARKS
BROWNSVILLE    LGT RAIN  53  51  93 NW9       30.09F FOG
PORT ISABEL    CLOUDY    53  52  96 NW9       30.08F FOG
*SOUTH PADRE   NOT AVBL
HARLINGEN      CLOUDY    52  48  86 NW13      30.10F
*HEBBRONVILLE  CLOUDY    49  40  70 CALM      30.17R
MCALLEN        CLOUDY    51  46  83 W10       30.15R
*WESLACO       RAIN      48  46  91 NW8       30.13R WCI  45
FALFURRIAS     CLOUDY    52  42  69 CALM      30.13S
EDINBURG       CLOUDY    53  45  74 W8        30.14R
*ZAPATA        LGT RAIN  46  46  97 CALM      30.19F VSB 1
$$

TXZ213>215-236>238-242>244-246-247-251-254-255-161800-
CMAN STATIONS

STATION/POSITION TIME  TEMP    WIND        PRES    WAVE
                       AIR SEA DIR/SP/G            HT/PER
                 (UTC) (F)     (DEG/KT/KT) (MB)    (FT/S)
SABINE PASS      1648   52 59   80/ 10/ 14 1024.7
SEA RIM ST PARK  1700   55     100/ 12/ 15 1023.5
NORTH JETTY/GLS  1642      57   80/ 15/ 17 1022.5
EAGLE POINT      1648   52 53   80/ 12/ 13 1023.1
MORGANS POINT    1648   54 56  100/ 10/ 12 1023.2
PORT O`CONNOR    1648   54 54   60/ 15/ 18 1020.4
MALAQUITE BEACH  1648   60 60   50/ 22/ 25 1018.8
BAFFIN BAY       1648   58 54   40/ 13/ 15 1018.7
PORT ISABEL      1648   53 60  300/  7/ 10 1018.1
$$



USA.gov is the U.S. government's official web portal to all federal, state and local government web resources and services.